CW9107 Weather Reports


time (UTC)temp
C
wind
direction
speed
KPH
gust
KPH
rain 1hr
cm
rain 24hr
cm
rain mn
cm
humidity
%
barometer
mb
20260504215103 15 194 3.2 11.3 0.00 0.00 0.00 80 1012.9
20260504215004 15 200 3.2 11.3 0.00 0.00 0.00 80 1012.8
20260504214903 15 194 3.2 11.3 0.00 0.00 0.00 80 1012.8
20260504214804 15 188 3.2 11.3 0.00 0.00 0.00 79 1012.8
20260504214703 15 186 3.2 11.3 0.00 0.00 0.00 80 1012.8
20260504214604 15 190 3.2 11.3 0.00 0.00 0.00 80 1012.9
20260504214517 15 189 3.2 11.3 0.00 0.00 0.00 80 1012.8
20260504214404 15 197 3.2 9.7 0.00 0.00 0.00 80 1012.7
20260504214316 15 213 3.2 9.7 0.00 0.00 0.00 80 1012.7
20260504214204 15 204 3.2 9.7 0.00 0.00 0.00 79 1012.7
20260504214003 15 187 3.2 9.7 0.00 0.00 0.00 79 1012.7
20260504213917 15 191 3.2 9.7 0.00 0.00 0.00 79 1012.7
20260504213903 15 191 3.2 9.7 0.00 0.00 0.00 79 1012.7
20260504213820 15 195 3.2 9.7 0.00 0.00 0.00 80 1012.6
20260504213804 15 200 3.2 9.7 0.00 0.00 0.00 80 1012.6
20260504213503 15 200 3.2 9.7 0.00 0.00 0.00 80 1012.7
20260504213404 15 196 3.2 9.7 0.00 0.00 0.00 80 1012.6
20260504213303 15 197 3.2 9.7 0.00 0.00 0.00 80 1012.7
20260504213205 15 206 3.2 9.7 0.00 0.00 0.00 80 1012.6
20260504213103 15 216 3.2 11.3 0.00 0.00 0.00 79 1012.6
20260504213004 15 214 3.2 11.3 0.00 0.00 0.00 79 1012.7
20260504212917 15 224 3.2 11.3 0.00 0.00 0.00 80 1012.7
20260504212903 15 225 3.2 11.3 0.00 0.00 0.00 80 1012.7
20260504212803 15 210 3.2 16.1 0.00 0.00 0.00 80 1012.7
20260504212718 15 206 3.2 16.1 0.00 0.00 0.00 80 1012.7
20260504212604 15 207 3.2 16.1 0.00 0.00 0.00 81 1012.7
20260504212403 15 195 4.8 16.1 0.00 0.00 0.00 80 1012.7
20260504212304 15 189 4.8 16.1 0.00 0.00 0.00 80 1012.7
20260504212203 15 184 4.8 16.1 0.00 0.00 0.00 80 1012.8
20260504212103 15 184 4.8 16.1 0.00 0.00 0.00 80 1012.8
20260504212003 15 183 4.8 16.1 0.00 0.00 0.00 80 1012.9
20260504211903 15 182 4.8 16.1 0.00 0.00 0.00 80 1012.8
20260504211803 15 186 4.8 11.3 0.00 0.00 0.00 80 1012.9
20260504211703 15 187 4.8 11.3 0.00 0.00 0.00 80 1012.8
20260504211603 15 186 4.8 11.3 0.00 0.00 0.00 80 1012.9
20260504211503 15 187 4.8 11.3 0.00 0.00 0.00 80 1012.9
20260504211318 15 192 3.2 11.3 0.00 0.00 0.00 80 1012.9
20260504211303 15 195 3.2 11.3 0.00 0.00 0.00 80 1012.9
20260504211203 15 204 3.2 11.3 0.00 0.00 0.00 80 1012.8
20260504211003 15 205 3.2 8.0 0.00 0.00 0.00 80 1012.8
20260504210903 15 202 3.2 11.3 0.00 0.00 0.00 80 1012.7
20260504210803 15 213 3.2 11.3 0.00 0.00 0.00 80 1012.7
20260504210718 15 203 3.2 11.3 0.00 0.00 0.00 80 1012.7
20260504210703 15 197 3.2 11.3 0.00 0.00 0.00 80 1012.7
20260504210603 15 193 3.2 11.3 0.00 0.00 0.00 80 1012.7
20260504210517 15 199 3.2 11.3 0.00 0.00 0.00 80 1012.7
20260504210403 15 202 3.2 11.3 0.00 0.00 0.00 80 1012.8
20260504210203 15 208 4.8 11.3 0.00 0.00 0.00 79 1012.7
20260504210117 15 205 4.8 11.3 0.00 0.00 0.00 79 1012.7
20260504210104 15 204 4.8 11.3 0.00 0.00 0.00 80 1012.8
20260504210004 15 201 4.8 11.3 0.00 0.00 0.00 80 1012.8
20260504205916 15 205 4.8 11.3 0.00 0.00 0.00 80 1012.7
20260504205803 15 189 4.8 11.3 0.00 0.00 0.00 79 1012.7
20260504205618 15 194 4.8 14.5 0.00 0.00 0.00 80 1012.7
20260504205603 15 191 4.8 14.5 0.00 0.00 0.00 80 1012.7
20260504205503 15 184 4.8 14.5 0.00 0.00 0.00 80 1012.7
20260504205304 15 173 4.8 14.5 0.00 0.00 0.00 79 1012.7
20260504205203 15 173 4.8 14.5 0.00 0.00 0.00 80 1012.7
20260504205117 15 172 4.8 14.5 0.00 0.00 0.00 79 1012.7
20260504205103 15 173 4.8 14.5 0.00 0.00 0.00 79 1012.7
20260504205003 15 171 4.8 14.5 0.00 0.00 0.00 79 1012.7
20260504204703 15 180 4.8 12.9 0.00 0.00 0.00 79 1012.6
20260504204604 15 178 4.8 12.9 0.00 0.00 0.00 80 1012.7
20260504204503 15 177 4.8 12.9 0.00 0.00 0.00 79 1012.7
20260504204403 15 173 3.2 12.9 0.00 0.00 0.00 80 1012.7
20260504204318 15 180 3.2 11.3 0.00 0.00 0.00 80 1012.7
20260504204303 15 179 3.2 11.3 0.00 0.00 0.00 79 1012.7
20260504204203 15 175 3.2 11.3 0.00 0.00 0.00 79 1012.7
20260504204004 15 186 3.2 11.3 0.00 0.00 0.00 79 1012.7
20260504203903 15 187 3.2 11.3 0.00 0.00 0.00 80 1012.7
20260504203803 15 194 3.2 11.3 0.00 0.00 0.00 80 1012.7
20260504203603 15 190 3.2 16.1 0.00 0.00 0.00 79 1012.7
20260504203503 15 201 3.2 16.1 0.00 0.00 0.00 80 1012.7
20260504203417 15 202 3.2 16.1 0.00 0.00 0.00 80 1012.7
20260504203403 15 200 4.8 16.1 0.00 0.00 0.00 80 1012.7
20260504203318 15 204 4.8 16.1 0.00 0.00 0.00 80 1012.7
20260504203303 15 201 4.8 16.1 0.00 0.00 0.00 80 1012.7
20260504203003 15 189 4.8 16.1 0.00 0.00 0.00 80 1012.7
20260504202903 15 187 4.8 16.1 0.00 0.00 0.00 80 1012.6
20260504202704 15 182 3.2 16.1 0.00 0.00 0.00 80 1012.5
20260504202603 15 191 3.2 11.3 0.00 0.00 0.00 79 1012.6
20260504202503 15 189 3.2 11.3 0.00 0.00 0.00 79 1012.6
20260504202403 15 189 3.2 11.3 0.00 0.00 0.00 79 1012.5
20260504202304 15 186 4.8 11.3 0.00 0.00 0.00 79 1012.5
20260504202203 15 183 3.2 11.3 0.00 0.00 0.00 80 1012.5
20260504202117 15 191 3.2 11.3 0.00 0.00 0.00 80 1012.4
20260504202103 15 198 3.2 11.3 0.00 0.00 0.00 80 1012.5
20260504202003 15 198 3.2 11.3 0.00 0.00 0.00 80 1012.6
20260504201803 15 188 4.8 11.3 0.00 0.00 0.00 80 1012.6
20260504201703 15 185 4.8 11.3 0.00 0.00 0.00 80 1012.7
20260504201603 15 177 4.8 14.5 0.00 0.00 0.00 79 1012.6
20260504201517 15 174 4.8 14.5 0.00 0.00 0.00 79 1012.7
20260504201503 15 174 4.8 14.5 0.00 0.00 0.00 80 1012.8
20260504201403 15 177 4.8 14.5 0.00 0.00 0.00 80 1012.8
20260504201203 15 179 4.8 14.5 0.00 0.00 0.00 80 1012.8
20260504201103 15 180 4.8 14.5 0.00 0.00 0.00 79 1012.8
20260504201003 15 178 4.8 14.5 0.00 0.00 0.00 79 1012.8
20260504200903 15 182 4.8 14.5 0.00 0.00 0.00 79 1012.8
20260504200803 15 193 4.8 14.5 0.00 0.00 0.00 79 1012.8
20260504200703 15 200 3.2 14.5 0.00 0.00 0.00 79 1012.8
20260504200603 15 220 3.2 9.7 0.00 0.00 0.00 80 1012.8
20260504200503 15 233 3.2 9.7 0.00 0.00 0.00 79 1012.8
20260504200403 15 228 3.2 9.7 0.00 0.00 0.00 79 1012.7
20260504200303 15 213 3.2 9.7 0.00 0.00 0.00 79 1012.8
20260504200203 15 210 3.2 12.9 0.00 0.00 0.00 80 1012.8
20260504200004 15 200 3.2 12.9 0.00 0.00 0.00 80 1012.8
20260504195918 15 195 3.2 12.9 0.00 0.00 0.00 80 1012.8
20260504195903 15 191 4.8 12.9 0.00 0.00 0.00 80 1012.8
20260504195803 15 180 4.8 12.9 0.00 0.00 0.00 80 1012.9
20260504195603 15 181 4.8 12.9 0.00 0.00 0.00 80 1012.7
20260504195503 15 176 4.8 12.9 0.00 0.00 0.00 80 1012.8
20260504195403 15 174 4.8 17.7 0.00 0.00 0.00 80 1012.8
20260504195318 15 174 4.8 17.7 0.00 0.00 0.00 80 1012.7
20260504195304 15 175 4.8 17.7 0.00 0.00 0.00 80 1012.7
20260504195203 15 180 4.8 17.7 0.00 0.00 0.00 80 1012.7
20260504195117 15 179 4.8 17.7 0.00 0.00 0.00 80 1012.7
20260504195017 15 177 4.8 17.7 0.00 0.00 0.00 80 1012.6
20260504195006 15 178 4.8 17.7 0.00 0.00 0.00 80 1012.7
20260504194717 15 182 4.8 17.7 0.00 0.00 0.00 80 1012.7
20260504194703 15 182 4.8 17.7 0.00 0.00 0.00 80 1012.7
20260504194618 15 182 4.8 17.7 0.00 0.00 0.00 80 1012.8
20260504194603 15 183 4.8 17.7 0.00 0.00 0.00 80 1012.8
20260504194417 15 188 4.8 12.9 0.00 0.00 0.00 81 1012.6
20260504194304 15 184 4.8 12.9 0.00 0.00 0.00 81 1012.6
20260504194218 15 182 4.8 12.9 0.00 0.00 0.00 81 1012.7
20260504194103 15 184 4.8 16.1 0.00 0.00 0.00 81 1012.7
20260504193903 15 183 4.8 16.1 0.00 0.00 0.00 81 1012.7
20260504193803 15 186 4.8 16.1 0.00 0.00 0.00 81 1012.6
20260504193703 15 182 6.4 16.1 0.00 0.00 0.00 81 1012.7
20260504193603 15 176 4.8 16.1 0.00 0.00 0.00 81 1012.8
20260504193503 15 171 4.8 16.1 0.00 0.00 0.00 81 1012.7
20260504193403 14 174 4.8 16.1 0.00 0.00 0.00 81 1012.6
20260504193303 14 175 4.8 16.1 0.00 0.00 0.00 81 1012.6
20260504193203 14 173 4.8 16.1 0.00 0.00 0.00 81 1012.6
20260504193103 14 175 4.8 14.5 0.00 0.00 0.00 80 1012.6
20260504192903 14 186 4.8 14.5 0.00 0.00 0.00 81 1012.7
20260504192803 14 181 4.8 14.5 0.00 0.00 0.00 80 1012.7
20260504192703 15 186 3.2 11.3 0.00 0.00 0.00 80 1012.8
20260504192603 15 195 3.2 11.3 0.00 0.00 0.00 81 1012.8
20260504192503 15 203 3.2 11.3 0.00 0.00 0.00 80 1012.8
20260504192417 15 201 3.2 11.3 0.00 0.00 0.00 81 1012.8
20260504192404 15 202 3.2 11.3 0.00 0.00 0.00 81 1012.8
20260504192304 15 199 3.2 12.9 0.00 0.00 0.00 81 1012.7
20260504192103 15 198 3.2 12.9 0.00 0.00 0.00 81 1012.7
20260504192003 15 192 4.8 14.5 0.00 0.00 0.00 81 1012.8
20260504191903 14 192 4.8 14.5 0.00 0.00 0.00 81 1012.7
20260504191803 14 198 4.8 14.5 0.00 0.00 0.00 81 1012.7
20260504191703 14 188 4.8 14.5 0.00 0.00 0.00 81 1012.7
20260504191603 14 184 4.8 14.5 0.00 0.00 0.00 81 1012.8
20260504191503 14 180 4.8 14.5 0.00 0.00 0.00 81 1012.8
20260504191404 14 175 4.8 14.5 0.00 0.00 0.00 81 1012.8
20260504191303 14 178 4.8 14.5 0.00 0.00 0.00 81 1012.8
20260504191205 14 180 4.8 14.5 0.00 0.00 0.00 81 1012.8
20260504191103 14 180 4.8 14.5 0.00 0.00 0.00 81 1012.9
20260504191003 14 178 4.8 12.9 0.00 0.00 0.00 81 1012.8
20260504190903 14 178 4.8 12.9 0.00 0.00 0.00 81 1012.8
20260504190803 14 178 4.8 12.9 0.00 0.00 0.00 81 1012.8
20260504190703 14 179 4.8 12.9 0.00 0.00 0.00 81 1012.7
20260504190603 14 177 4.8 12.9 0.00 0.00 0.00 81 1012.8
20260504190504 14 176 4.8 12.9 0.00 0.00 0.00 81 1012.7
20260504190303 14 176 4.8 17.7 0.00 0.00 0.00 81 1012.7
20260504190203 14 173 4.8 17.7 0.00 0.00 0.00 81 1012.7
20260504190003 15 184 4.8 17.7 0.00 0.00 0.00 81 1012.7
20260504185903 14 181 4.8 17.7 0.00 0.00 0.00 81 1012.7
20260504185804 14 176 4.8 17.7 0.00 0.00 0.00 81 1012.6
20260504185703 14 182 4.8 17.7 0.00 0.00 0.00 81 1012.8
20260504185603 14 187 4.8 17.7 0.00 0.00 0.00 82 1012.7
20260504185503 14 187 4.8 17.7 0.00 0.00 0.00 82 1012.6
20260504185403 14 200 4.8 11.3 0.00 0.00 0.00 82 1012.7
20260504185304 14 198 4.8 11.3 0.00 0.00 0.00 82 1012.6
20260504185203 14 189 4.8 11.3 0.00 0.00 0.00 81 1012.7
20260504185103 14 187 4.8 16.1 0.00 0.00 0.00 82 1012.7
20260504185003 14 178 4.8 16.1 0.00 0.00 0.00 81 1012.7
20260504184918 14 177 4.8 16.1 0.00 0.00 0.00 81 1012.7
20260504184903 14 177 4.8 16.1 0.00 0.00 0.00 81 1012.7
20260504184803 14 175 4.8 16.1 0.00 0.00 0.00 82 1012.7
20260504184603 14 180 4.8 16.1 0.00 0.00 0.00 82 1012.6
20260504184503 14 177 4.8 16.1 0.00 0.00 0.00 82 1012.6
20260504184403 14 177 4.8 16.1 0.00 0.00 0.00 82 1012.6
20260504184304 14 177 4.8 16.1 0.00 0.00 0.00 81 1012.6
20260504184203 14 180 4.8 16.1 0.00 0.00 0.00 81 1012.7
20260504184103 14 179 4.8 16.1 0.00 0.00 0.00 82 1012.6
20260504184003 14 176 4.8 12.9 0.00 0.00 0.00 82 1012.7
20260504183903 14 178 4.8 12.9 0.00 0.00 0.00 82 1012.5
20260504183703 14 174 4.8 12.9 0.00 0.00 0.00 82 1012.6
20260504183603 14 177 4.8 16.1 0.00 0.00 0.00 82 1012.5
20260504183503 14 177 4.8 16.1 0.00 0.00 0.00 82 1012.6
20260504183403 14 175 4.8 16.1 0.00 0.00 0.00 82 1012.6
20260504183218 14 169 6.4 16.1 0.00 0.00 0.00 83 1012.6
20260504183203 14 169 4.8 16.1 0.00 0.00 0.00 83 1012.6
20260504183104 14 168 4.8 16.1 0.00 0.00 0.00 83 1012.5
20260504182903 14 171 4.8 16.1 0.00 0.00 0.00 82 1012.6
20260504182803 14 172 4.8 16.1 0.00 0.00 0.00 82 1012.6
20260504182703 14 174 4.8 16.1 0.00 0.00 0.00 82 1012.6
20260504182503 14 175 4.8 16.1 0.00 0.00 0.00 83 1012.6
20260504182403 14 179 4.8 16.1 0.00 0.00 0.00 83 1012.6
20260504182317 14 182 4.8 16.1 0.00 0.00 0.00 83 1012.5
20260504182304 14 185 4.8 16.1 0.00 0.00 0.00 83 1012.5
20260504182204 14 193 4.8 16.1 0.00 0.00 0.00 83 1012.5
20260504182003 14 192 4.8 16.1 0.00 0.00 0.00 83 1012.6
20260504181903 14 198 4.8 16.1 0.00 0.00 0.00 83 1012.6
20260504181803 14 209 4.8 16.1 0.00 0.00 0.00 83 1012.5
20260504181703 14 206 3.2 16.1 0.00 0.00 0.00 83 1012.6
20260504181603 14 201 3.2 11.3 0.00 0.00 0.00 83 1012.6
20260504181503 14 191 3.2 14.5 0.00 0.00 0.00 84 1012.5
20260504181403 14 176 3.2 16.1 0.00 0.00 0.00 84 1012.5
20260504181303 14 179 3.2 16.1 0.00 0.00 0.00 84 1012.5
20260504181204 14 179 3.2 16.1 0.00 0.00 0.00 84 1012.4
20260504181105 14 192 3.2 16.1 0.00 0.00 0.00 84 1012.5
20260504180904 14 203 3.2 16.1 0.00 0.00 0.00 84 1012.5
20260504180803 14 195 3.2 16.1 0.00 0.00 0.00 84 1012.5
20260504180703 14 197 3.2 16.1 0.00 0.00 0.00 84 1012.5
20260504180604 14 218 3.2 16.1 0.00 0.00 0.00 84 1012.5
20260504180518 14 208 3.2 16.1 0.00 0.00 0.00 84 1012.5
20260504180504 14 215 3.2 16.1 0.00 0.00 0.00 85 1012.6
20260504180403 14 219 3.2 16.1 0.00 0.00 0.00 85 1012.4
20260504180203 14 197 3.2 16.1 0.00 0.00 0.00 85 1012.4
20260504180103 14 184 3.2 16.1 0.00 0.00 0.00 85 1012.4
20260504180006 13 181 3.2 16.1 0.00 0.00 0.00 85 1012.4
20260504175917 13 177 3.2 16.1 0.00 0.00 0.00 85 1012.4
20260504175903 13 176 4.8 16.1 0.00 0.00 0.00 85 1012.4
20260504175803 13 176 4.8 16.1 0.00 0.00 0.00 85 1012.4
20260504175603 13 175 4.8 16.1 0.00 0.00 0.00 84 1012.4
20260504175518 13 178 4.8 16.1 0.00 0.00 0.00 84 1012.4
20260504175503 13 179 4.8 16.1 0.00 0.00 0.00 84 1012.4
20260504175403 13 185 4.8 12.9 0.00 0.00 0.00 85 1012.3
20260504175317 13 185 4.8 12.9 0.00 0.00 0.00 85 1012.4
20260504175203 13 183 4.8 12.9 0.00 0.00 0.00 85 1012.4
20260504175004 13 181 4.8 14.5 0.00 0.00 0.00 85 1012.5
20260504174903 13 181 4.8 14.5 0.00 0.00 0.00 85 1012.3
20260504174803 13 177 4.8 14.5 0.00 0.00 0.00 84 1012.3
20260504174703 13 173 4.8 14.5 0.00 0.00 0.00 85 1012.3
20260504174603 13 176 4.8 14.5 0.00 0.00 0.00 85 1012.3
20260504174504 13 172 4.8 14.5 0.00 0.00 0.00 85 1012.3
20260504174418 13 172 4.8 14.5 0.00 0.00 0.00 85 1012.3
20260504174403 13 172 4.8 14.5 0.00 0.00 0.00 85 1012.3
20260504174303 13 171 4.8 14.5 0.00 0.00 0.00 85 1012.3
20260504174103 13 173 4.8 17.7 0.00 0.00 0.00 84 1012.3
20260504174003 13 173 6.4 17.7 0.00 0.00 0.00 84 1012.3
20260504173917 13 171 6.4 17.7 0.00 0.00 0.00 84 1012.3
20260504173903 13 172 6.4 17.7 0.00 0.00 0.00 84 1012.3
20260504173803 13 171 4.8 17.7 0.00 0.00 0.00 84 1012.3
20260504173716 13 173 4.8 17.7 0.00 0.00 0.00 84 1012.2
20260504173603 13 172 4.8 17.7 0.00 0.00 0.00 84 1012.3
20260504173418 13 171 4.8 17.7 0.00 0.00 0.00 84 1012.4
20260504173403 13 172 4.8 17.7 0.00 0.00 0.00 84 1012.3
20260504173303 13 175 4.8 17.7 0.00 0.00 0.00 84 1012.4
20260504173103 13 179 4.8 14.5 0.00 0.00 0.00 85 1012.3
20260504173016 13 180 4.8 14.5 0.00 0.00 0.00 85 1012.3
20260504173004 13 180 4.8 14.5 0.00 0.00 0.00 85 1012.2
20260504172903 13 183 4.8 14.5 0.00 0.00 0.00 85 1012.3
20260504172703 13 187 4.8 14.5 0.00 0.00 0.00 85 1012.3
20260504172617 13 185 4.8 14.5 0.00 0.00 0.00 85 1012.3
20260504172603 13 187 4.8 14.5 0.00 0.00 0.00 85 1012.3
20260504172518 13 183 4.8 14.5 0.00 0.00 0.00 85 1012.3
20260504172503 13 183 3.2 14.5 0.00 0.00 0.00 85 1012.3
20260504172203 13 181 4.8 12.9 0.00 0.00 0.00 85 1012.2
20260504172103 13 175 4.8 14.5 0.00 0.00 0.00 85 1012.2
20260504172003 13 175 4.8 14.5 0.00 0.00 0.00 85 1012.3
20260504171903 13 177 4.8 14.5 0.00 0.00 0.00 85 1012.1
20260504171803 13 174 4.8 16.1 0.00 0.00 0.00 85 1012.2
20260504171716 13 173 4.8 16.1 0.00 0.00 0.00 85 1012.2
20260504171703 13 172 4.8 16.1 0.00 0.00 0.00 85 1012.2
20260504171603 13 171 4.8 16.1 0.00 0.00 0.00 85 1012.2
20260504171403 13 169 4.8 16.1 0.00 0.00 0.00 85 1012.2
20260504171303 13 168 4.8 16.1 0.00 0.00 0.00 85 1012.2
20260504171203 13 170 4.8 16.1 0.00 0.00 0.00 85 1012.2
20260504171103 13 173 4.8 16.1 0.00 0.00 0.00 85 1012.1
20260504171003 13 173 4.8 16.1 0.00 0.00 0.00 85 1012.1
20260504170904 13 171 4.8 16.1 0.00 0.00 0.00 85 1012.2
20260504170803 13 168 4.8 16.1 0.00 0.00 0.00 85 1012.2
20260504170704 13 168 4.8 16.1 0.00 0.00 0.00 85 1012.1
20260504170603 13 166 4.8 17.7 0.00 0.00 0.00 85 1012.1
20260504170503 13 164 4.8 17.7 0.00 0.00 0.00 85 1012.1
20260504170405 13 161 4.8 17.7 0.00 0.00 0.00 85 1012.2
20260504170303 13 160 4.8 17.7 0.00 0.00 0.00 85 1012.1
20260504170204 13 161 4.8 17.7 0.00 0.00 0.00 86 1012.1
20260504160403 13 159 4.8 17.7 0.00 0.00 0.00 86 1011.8
20260504160303 13 158 4.8 17.7 0.00 0.00 0.00 86 1011.8
20260504160203 13 157 4.8 17.7 0.00 0.00 0.00 86 1011.8
20260504160104 13 156 4.8 17.7 0.00 0.00 0.00 87 1011.8
20260504151104 12 162 6.4 20.9 0.00 0.00 0.00 87 1011.4
20260504151005 12 163 6.4 20.9 0.00 0.00 0.00 87 1011.3
20260504150903 12 165 6.4 20.9 0.00 0.00 0.00 87 1011.4
20260504150805 12 165 6.4 20.9 0.00 0.00 0.00 87 1011.4
20260504150705 12 165 6.4 20.9 0.00 0.00 0.00 87 1011.4
20260504150604 12 165 6.4 20.9 0.00 0.00 0.00 87 1011.4
20260504150503 12 167 6.4 20.9 0.00 0.00 0.00 87 1011.4
20260504150419 12 166 6.4 20.9 0.00 0.00 0.00 87 1011.3
20260504150404 12 167 6.4 20.9 0.00 0.00 0.00 87 1011.5
20260504150303 12 166 6.4 16.1 0.00 0.00 0.00 87 1011.3
20260504150103 12 162 6.4 16.1 0.00 0.00 0.00 87 1011.3
20260504141205 12 160 4.8 16.1 0.00 0.00 0.00 87 1011.0
20260504141105 12 158 4.8 16.1 0.00 0.00 0.00 87 1011.0
20260504141005 12 155 4.8 16.1 0.00 0.00 0.00 87 1011.0
20260504140906 12 154 4.8 16.1 0.00 0.00 0.00 87 1010.9
20260504140805 12 157 4.8 16.1 0.00 0.00 0.00 87 1011.0
20260504140705 12 156 4.8 16.1 0.00 0.00 0.00 87 1010.9
20260504140605 12 155 4.8 12.9 0.00 0.00 0.00 87 1010.9
20260504140505 12 158 4.8 12.9 0.00 0.00 0.00 87 1010.9
20260504140405 12 156 4.8 12.9 0.00 0.00 0.00 87 1010.9
20260504140104 12 157 4.8 12.9 0.00 0.00 0.00 87 1010.8
20260504130703 12 153 4.8 14.5 0.00 0.00 0.00 87 1010.2
20260504130620 12 152 4.8 14.5 0.00 0.00 0.00 87 1010.3
20260504130603 12 150 4.8 14.5 0.00 0.00 0.00 87 1010.3
20260504130504 12 153 4.8 14.5 0.00 0.00 0.00 87 1010.2
20260504130303 12 148 4.8 14.5 0.00 0.00 0.00 87 1010.3
20260504130220 12 148 4.8 14.5 0.00 0.00 0.00 87 1010.2
20260504130205 12 147 4.8 14.5 0.00 0.00 0.00 87 1010.2
20260504130104 12 146 6.4 17.7 0.00 0.00 0.00 87 1010.3
20260504120204 12 162 6.4 17.7 0.00 0.00 0.00 87 1010.0
20260504120103 12 162 6.4 17.7 0.00 0.00 0.00 87 1010.0
20260504110718 11 159 6.4 16.1 0.00 0.00 0.00 87 1009.8
20260504110703 11 160 4.8 16.1 0.00 0.00 0.00 87 1009.8
20260504110603 11 155 4.8 16.1 0.00 0.00 0.00 87 1009.7
20260504110517 11 154 4.8 16.1 0.00 0.00 0.00 87 1009.7
20260504110418 11 155 4.8 16.1 0.00 0.00 0.00 87 1009.6
20260504110403 11 154 4.8 16.1 0.00 0.00 0.00 87 1009.6
20260504110105 11 157 4.8 16.1 0.00 0.00 0.00 87 1009.7
20260504100603 11 142 4.8 16.1 0.00 0.00 0.00 86 1009.2
20260504100503 11 143 4.8 12.9 0.00 0.00 0.00 86 1009.2
20260504100403 11 144 4.8 12.9 0.00 0.00 0.00 86 1009.1
20260504100303 11 146 4.8 12.9 0.00 0.00 0.00 86 1009.2
20260504100203 11 149 4.8 12.9 0.00 0.00 0.00 86 1009.2
20260504100103 11 149 4.8 12.9 0.00 0.00 0.00 86 1009.1
20260504082003 9 0 0.0 0.0 0.00 0.00 0.00 85 1008.0
20260504081904 9 0 0.0 0.0 0.00 0.00 0.00 85 1007.9
20260504081803 9 0 0.0 0.0 0.00 0.00 0.00 85 1007.9
20260504081604 9 0 0.0 0.0 0.00 0.00 0.00 85 1007.9
20260504081504 9 0 0.0 0.0 0.00 0.00 0.00 85 1007.9
20260504081403 9 0 0.0 0.0 0.00 0.00 0.00 85 1007.8
20260504081304 9 0 0.0 0.0 0.00 0.00 0.00 85 1007.9
20260504081203 9 309 0.0 1.6 0.00 0.00 0.00 85 1007.8
20260504081119 9 309 0.0 1.6 0.00 0.00 0.00 85 1007.8
20260504081104 9 309 0.0 1.6 0.00 0.00 0.00 85 1007.7
20260504081003 9 309 0.0 1.6 0.00 0.00 0.00 85 1007.8
20260504080803 9 309 0.0 1.6 0.00 0.00 0.00 85 1007.7
20260504080703 9 309 0.0 1.6 0.00 0.00 0.00 85 1007.9
20260504080603 9 309 0.0 1.6 0.00 0.00 0.00 85 1007.8
20260504080503 9 309 0.0 1.6 0.00 0.00 0.00 85 1007.8
20260504080317 9 309 0.0 1.6 0.00 0.00 0.00 85 1007.8
20260504080203 9 0 0.0 0.0 0.00 0.00 0.00 85 1007.9
20260504080116 9 0 0.0 0.0 0.00 0.00 0.00 85 1007.9
20260504070403 10 309 0.0 3.2 0.00 0.00 0.00 84 1008.0
20260504070303 10 309 0.0 3.2 0.00 0.00 0.00 84 1008.0
20260504070204 10 309 0.0 3.2 0.00 0.00 0.00 84 1008.0
20260504060203 11 0 0.0 0.0 0.00 0.00 0.00 83 1008.1
20260504050718 11 0 0.0 0.0 0.00 0.00 0.00 83 1008.2
20260504050616 11 0 0.0 0.0 0.00 0.00 0.00 83 1008.1
20260504050603 11 0 0.0 0.0 0.00 0.00 0.00 82 1008.1
20260504050303 11 0 0.0 0.0 0.00 0.00 0.00 82 1008.1
20260504050204 11 0 0.0 0.0 0.00 0.00 0.00 82 1008.0
20260504050103 11 0 0.0 0.0 0.00 0.00 0.00 82 1008.0
20260504050003 11 0 0.0 0.0 0.00 0.00 0.00 82 1008.0
20260504045903 11 0 0.0 0.0 0.00 0.00 0.00 82 1008.1
20260504045804 11 0 0.0 0.0 0.00 0.00 0.00 82 1008.1
20260504045703 11 0 0.0 0.0 0.00 0.00 0.00 82 1008.0
20260504045618 11 0 0.0 0.0 0.00 0.00 0.00 82 1008.0
20260504045519 12 0 0.0 0.0 0.00 0.00 0.00 82 1008.0
20260504045503 12 0 0.0 0.0 0.00 0.00 0.00 82 1008.1
20260504045418 12 0 0.0 0.0 0.00 0.00 0.00 82 1008.0
20260504045103 12 0 0.0 0.0 0.00 0.00 0.00 82 1008.1
20260504045003 12 0 0.0 0.0 0.00 0.00 0.00 82 1008.1
20260504044917 12 0 0.0 0.0 0.00 0.00 0.00 82 1008.1
20260504044903 12 0 0.0 0.0 0.00 0.00 0.00 82 1008.0
20260504044803 12 0 0.0 0.0 0.00 0.00 0.00 82 1008.0
20260504044603 12 0 0.0 0.0 0.00 0.00 0.00 82 1008.1
20260504044503 12 0 0.0 0.0 0.00 0.00 0.00 82 1008.0
20260504044403 12 0 0.0 0.0 0.00 0.00 0.00 82 1008.0
20260504044318 12 0 0.0 0.0 0.00 0.00 0.00 82 1008.0
20260504044303 12 0 0.0 0.0 0.00 0.00 0.00 82 1008.1
20260504044203 12 0 0.0 0.0 0.00 0.00 0.00 82 1008.0
20260504044003 12 0 0.0 0.0 0.00 0.00 0.00 82 1008.0
20260504043903 12 0 0.0 0.0 0.00 0.00 0.00 82 1008.1
20260504043803 12 0 0.0 0.0 0.00 0.00 0.00 82 1008.0
20260504043703 12 0 0.0 0.0 0.00 0.00 0.00 82 1008.0
20260504043604 12 0 0.0 0.0 0.00 0.00 0.00 82 1008.1
20260504043503 12 309 0.0 1.6 0.00 0.00 0.00 82 1008.0
20260504043403 12 309 0.0 1.6 0.00 0.00 0.00 82 1008.0
20260504043303 12 309 0.0 1.6 0.00 0.00 0.00 82 1008.0
20260504043203 12 309 0.0 1.6 0.00 0.00 0.00 82 1008.1
20260504043103 12 309 0.0 1.6 0.00 0.00 0.00 82 1008.0
20260504043003 12 309 0.0 1.6 0.00 0.00 0.00 82 1008.0
20260504042903 12 309 0.0 1.6 0.00 0.00 0.00 82 1008.0
20260504042803 12 309 0.0 1.6 0.00 0.00 0.00 82 1008.0
20260504042703 12 309 0.0 1.6 0.00 0.00 0.00 82 1008.0
20260504042603 12 309 0.0 1.6 0.00 0.00 0.00 81 1008.0
20260504042403 12 309 0.0 1.6 0.00 0.00 0.00 81 1008.0
20260504042304 12 309 0.0 1.6 0.00 0.00 0.00 81 1008.0
20260504042203 12 309 0.0 1.6 0.00 0.00 0.00 81 1007.9
20260504042103 12 309 0.0 1.6 0.00 0.00 0.00 81 1007.9
20260504041903 12 309 0.0 1.6 0.00 0.00 0.00 81 1008.0
20260504041803 12 309 0.0 1.6 0.00 0.00 0.00 81 1008.0
20260504041703 12 309 0.0 3.2 0.00 0.00 0.00 81 1008.0
20260504041603 12 309 0.0 3.2 0.00 0.00 0.00 81 1008.0
20260504041503 12 309 0.0 3.2 0.00 0.00 0.00 81 1008.0
20260504041403 12 309 0.0 3.2 0.00 0.00 0.00 81 1008.1
20260504041303 12 309 0.0 3.2 0.00 0.00 0.00 81 1008.0
20260504041203 12 309 0.0 3.2 0.00 0.00 0.00 81 1008.0
20260504041103 12 309 0.0 3.2 0.00 0.00 0.00 81 1008.0
20260504041004 12 309 0.0 3.2 0.00 0.00 0.00 81 1008.1
20260504040903 12 309 0.0 3.2 0.00 0.00 0.00 81 1008.0
20260504040803 12 309 0.0 3.2 0.00 0.00 0.00 81 1008.0
20260504040604 12 309 0.0 3.2 0.00 0.00 0.00 81 1008.1
20260504040503 12 309 0.0 3.2 0.00 0.00 0.00 80 1008.0
20260504040404 12 309 0.0 3.2 0.00 0.00 0.00 80 1008.1
20260504040303 13 309 0.0 3.2 0.00 0.00 0.00 80 1008.1
20260504040103 13 309 0.0 3.2 0.00 0.00 0.00 80 1008.0
20260504040007 13 309 0.0 3.2 0.00 0.00 0.00 80 1008.0
20260504035804 13 309 0.0 3.2 0.00 0.00 0.00 80 1008.1
20260504035703 13 309 0.0 1.6 0.00 0.00 0.00 80 1008.1
20260504035503 13 309 0.0 1.6 0.00 0.00 0.00 80 1008.0
20260504035409 13 309 0.0 1.6 0.00 0.00 0.00 79 1008.0
20260504035304 13 309 0.0 1.6 0.00 0.00 0.00 79 1008.0
20260504035203 13 309 0.0 1.6 0.00 0.00 0.00 79 1008.0
20260504035103 13 309 0.0 1.6 0.00 0.00 0.00 79 1007.9
20260504035003 13 309 0.0 1.6 0.00 0.00 0.00 79 1008.0
20260504034903 13 309 0.0 1.6 0.00 0.00 0.00 79 1008.0
20260504034803 13 309 0.0 1.6 0.00 0.00 0.00 79 1008.0
20260504034703 13 309 0.0 1.6 0.00 0.00 0.00 79 1008.0
20260504034603 13 309 0.0 1.6 0.00 0.00 0.00 79 1008.0
20260504034503 13 309 0.0 3.2 0.00 0.00 0.00 79 1007.9
20260504034403 13 309 0.0 3.2 0.00 0.00 0.00 79 1008.0
20260504034303 13 309 0.0 3.2 0.00 0.00 0.00 78 1008.0
20260504034203 13 309 0.0 3.2 0.00 0.00 0.00 78 1008.1
20260504034103 13 309 0.0 3.2 0.00 0.00 0.00 78 1008.0
20260504034003 13 309 0.0 3.2 0.00 0.00 0.00 78 1008.1
20260504033803 13 309 0.0 3.2 0.00 0.00 0.00 78 1008.1
20260504033703 13 309 0.0 3.2 0.00 0.00 0.00 78 1008.1
20260504033603 13 309 0.0 3.2 0.00 0.00 0.00 78 1008.1
20260504033504 13 309 0.0 3.2 0.00 0.00 0.00 78 1008.1
20260504033404 13 309 0.0 3.2 0.00 0.00 0.00 77 1008.1
20260504033303 13 309 0.0 3.2 0.00 0.00 0.00 77 1008.2
20260504033204 13 309 0.0 3.2 0.00 0.00 0.00 77 1008.2
20260504033103 13 309 0.0 3.2 0.00 0.00 0.00 77 1008.0
20260504033003 13 309 0.0 3.2 0.00 0.00 0.00 77 1008.0
20260504032903 13 308 0.0 3.2 0.00 0.00 0.00 77 1008.0
20260504032803 13 308 0.0 3.2 0.00 0.00 0.00 77 1008.1
20260504032703 14 307 1.6 3.2 0.00 0.00 0.00 76 1008.0
20260504032603 14 306 1.6 3.2 0.00 0.00 0.00 76 1007.9
20260504032503 14 306 1.6 3.2 0.00 0.00 0.00 76 1007.9
20260504032403 14 305 1.6 3.2 0.00 0.00 0.00 76 1007.9
20260504032304 14 306 1.6 3.2 0.00 0.00 0.00 76 1007.9
20260504032218 14 305 1.6 3.2 0.00 0.00 0.00 76 1007.9
20260504032203 14 305 1.6 4.8 0.00 0.00 0.00 76 1007.9
20260504032103 14 306 1.6 4.8 0.00 0.00 0.00 76 1007.9
20260504031903 14 307 1.6 4.8 0.00 0.00 0.00 76 1007.9
20260504031804 14 307 1.6 4.8 0.00 0.00 0.00 75 1007.9
20260504031703 14 306 1.6 4.8 0.00 0.00 0.00 75 1007.8
20260504031603 14 308 1.6 4.8 0.00 0.00 0.00 75 1007.9
20260504031516 14 309 1.6 4.8 0.00 0.00 0.00 75 1007.9
20260504031504 14 310 1.6 4.8 0.00 0.00 0.00 75 1007.9
20260504031419 14 312 1.6 4.8 0.00 0.00 0.00 75 1007.8
20260504031403 15 312 1.6 4.8 0.00 0.00 0.00 75 1007.9
20260504031103 15 310 3.2 6.4 0.00 0.00 0.00 75 1007.9
20260504031019 15 307 3.2 6.4 0.00 0.00 0.00 74 1007.9
20260504031003 15 306 3.2 6.4 0.00 0.00 0.00 75 1007.9
20260504030903 15 308 3.2 8.0 0.00 0.00 0.00 74 1008.0
20260504030703 15 306 3.2 8.0 0.00 0.00 0.00 74 1007.9
20260504030603 15 304 3.2 8.0 0.00 0.00 0.00 74 1007.9
20260504030503 15 302 3.2 8.0 0.00 0.00 0.00 74 1007.9
20260504030403 15 301 3.2 8.0 0.00 0.00 0.00 74 1007.9
20260504030304 15 302 3.2 8.0 0.00 0.00 0.00 74 1007.9
20260504030203 15 303 3.2 8.0 0.00 0.00 0.00 74 1007.9
20260504030003 15 304 1.6 8.0 0.00 0.00 0.00 73 1007.9
20260504025803 15 303 1.6 6.4 0.00 0.00 0.00 73 1007.9
20260504025703 15 303 1.6 6.4 0.00 0.00 0.00 73 1007.9
20260504025403 15 302 3.2 6.4 0.00 0.00 0.00 73 1007.9
20260504025304 15 300 3.2 6.4 0.00 0.00 0.00 73 1008.0
20260504025203 15 303 3.2 6.4 0.00 0.00 0.00 73 1007.9
20260504025103 15 306 3.2 6.4 0.00 0.00 0.00 73 1007.9
20260504024918 15 311 3.2 6.4 0.00 0.00 0.00 73 1008.0
20260504024904 15 311 1.6 6.4 0.00 0.00 0.00 73 1007.9
20260504024803 15 312 3.2 6.4 0.00 0.00 0.00 73 1007.9
20260504024717 16 311 3.2 6.4 0.00 0.00 0.00 73 1007.9
20260504024603 16 312 3.2 6.4 0.00 0.00 0.00 73 1007.9
20260504024403 16 310 3.2 6.4 0.00 0.00 0.00 73 1007.9
20260504024303 16 310 3.2 8.0 0.00 0.00 0.00 73 1007.9
20260504024203 16 307 3.2 8.0 0.00 0.00 0.00 73 1007.9
20260504024103 16 306 3.2 8.0 0.00 0.00 0.00 72 1007.9
20260504024003 16 306 3.2 8.0 0.00 0.00 0.00 72 1007.9
20260504023904 16 306 3.2 8.0 0.00 0.00 0.00 72 1007.9
20260504023703 16 305 3.2 8.0 0.00 0.00 0.00 72 1007.9
20260504023617 16 306 3.2 8.0 0.00 0.00 0.00 72 1007.9
20260504023604 16 308 3.2 8.0 0.00 0.00 0.00 72 1007.9
20260504023503 16 310 3.2 9.7 0.00 0.00 0.00 72 1007.9
20260504023303 16 312 3.2 9.7 0.00 0.00 0.00 72 1007.9
20260504023204 16 311 3.2 9.7 0.00 0.00 0.00 72 1008.0
20260504023103 16 312 3.2 9.7 0.00 0.00 0.00 72 1008.0
20260504023004 16 310 3.2 9.7 0.00 0.00 0.00 72 1007.9
20260504022903 16 306 3.2 9.7 0.00 0.00 0.00 72 1008.0
20260504022804 16 306 3.2 9.7 0.00 0.00 0.00 72 1007.9
20260504022703 16 306 3.2 9.7 0.00 0.00 0.00 71 1008.1
20260504022604 16 305 3.2 9.7 0.00 0.00 0.00 71 1008.0
20260504022503 16 303 3.2 8.0 0.00 0.00 0.00 71 1008.0
20260504022403 16 303 3.2 8.0 0.00 0.00 0.00 71 1007.9
20260504022304 16 302 1.6 6.4 0.00 0.00 0.00 71 1008.0
20260504022218 16 304 1.6 6.4 0.00 0.00 0.00 71 1008.1
20260504022203 16 305 1.6 6.4 0.00 0.00 0.00 71 1008.0
20260504022104 16 303 1.6 6.4 0.00 0.00 0.00 71 1008.1
20260504022019 16 304 1.6 8.0 0.00 0.00 0.00 71 1008.0
20260504021903 16 303 3.2 8.0 0.00 0.00 0.00 71 1008.0
20260504021703 16 299 3.2 8.0 0.00 0.00 0.00 71 1008.0
20260504021604 16 299 3.2 8.0 0.00 0.00 0.00 71 1008.1
20260504021504 16 302 3.2 8.0 0.00 0.00 0.00 71 1007.9
20260504021404 16 304 3.2 8.0 0.00 0.00 0.00 70 1008.1
20260504021303 16 304 3.2 8.0 0.00 0.00 0.00 70 1008.1
20260504021204 16 302 3.2 8.0 0.00 0.00 0.00 70 1008.0
20260504021103 16 303 3.2 8.0 0.00 0.00 0.00 70 1008.1
20260504021003 16 303 3.2 8.0 0.00 0.00 0.00 70 1008.1
20260504020903 16 305 3.2 8.0 0.00 0.00 0.00 70 1008.0
20260504020818 16 306 3.2 8.0 0.00 0.00 0.00 70 1008.1
20260504020703 16 308 3.2 8.0 0.00 0.00 0.00 70 1008.1
20260504020503 16 306 3.2 8.0 0.00 0.00 0.00 69 1008.1
20260504020403 16 305 3.2 8.0 0.00 0.00 0.00 69 1008.1
20260504020203 16 308 3.2 8.0 0.00 0.00 0.00 69 1008.0
20260504020103 16 307 3.2 8.0 0.00 0.00 0.00 69 1008.1
20260504020017 16 308 3.2 8.0 0.00 0.00 0.00 69 1008.1
20260504020003 16 307 3.2 8.0 0.00 0.00 0.00 69 1008.0
20260504015903 16 304 3.2 8.0 0.00 0.00 0.00 68 1008.0
20260504015703 16 301 3.2 9.7 0.00 0.00 0.00 68 1008.1
20260504015603 16 301 3.2 9.7 0.00 0.00 0.00 68 1008.1
20260504015518 17 302 3.2 9.7 0.00 0.00 0.00 68 1008.1
20260504015505 17 303 3.2 9.7 0.00 0.00 0.00 68 1008.1
20260504015403 17 302 3.2 9.7 0.00 0.00 0.00 68 1008.1
20260504015317 17 300 3.2 9.7 0.00 0.00 0.00 68 1008.1
20260504015203 17 299 3.2 9.7 0.00 0.00 0.00 67 1008.1
20260504015003 17 297 3.2 9.7 0.00 0.00 0.00 67 1008.2
20260504014908 17 298 3.2 9.7 0.00 0.00 0.00 67 1008.1
20260504014803 17 297 3.2 9.7 0.00 0.00 0.00 67 1008.1
20260504014604 17 297 3.2 9.7 0.00 0.00 0.00 66 1008.2
20260504014504 17 297 3.2 6.4 0.00 0.00 0.00 66 1008.2
20260504014403 17 299 3.2 6.4 0.00 0.00 0.00 66 1008.2
20260504014317 17 298 3.2 12.9 0.00 0.00 0.00 66 1008.3
20260504014304 17 298 3.2 12.9 0.00 0.00 0.00 66 1008.3
20260504014203 17 300 4.8 14.5 0.00 0.00 0.00 66 1008.2
20260504014003 17 302 4.8 14.5 0.00 0.00 0.00 65 1008.3
20260504013903 17 303 4.8 14.5 0.00 0.00 0.00 65 1008.3
20260504013803 17 304 4.8 14.5 0.00 0.00 0.00 65 1008.3
20260504013703 17 303 4.8 14.5 0.00 0.00 0.00 65 1008.3
20260504013619 17 305 4.8 14.5 0.00 0.00 0.00 65 1008.3
20260504013603 17 304 4.8 14.5 0.00 0.00 0.00 65 1008.3
20260504013303 17 302 3.2 14.5 0.00 0.00 0.00 64 1008.4
20260504013219 17 301 3.2 14.5 0.00 0.00 0.00 64 1008.4
20260504013203 17 302 3.2 11.3 0.00 0.00 0.00 64 1008.4
20260504013118 17 303 3.2 11.3 0.00 0.00 0.00 64 1008.4
20260504013103 17 304 3.2 11.3 0.00 0.00 0.00 64 1008.4
20260504012818 17 303 3.2 11.3 0.00 0.00 0.00 64 1008.4
20260504012803 17 303 3.2 11.3 0.00 0.00 0.00 64 1008.5
20260504012703 17 304 3.2 11.3 0.00 0.00 0.00 64 1008.4
20260504012503 17 307 3.2 12.9 0.00 0.00 0.00 64 1008.4
20260504012403 17 304 3.2 12.9 0.00 0.00 0.00 65 1008.5
20260504012304 17 304 3.2 12.9 0.00 0.00 0.00 65 1008.5
20260504012203 17 301 3.2 12.9 0.00 0.00 0.00 65 1008.5
20260504012103 17 297 3.2 12.9 0.00 0.00 0.00 65 1008.5
20260504012004 17 299 3.2 12.9 0.00 0.00 0.00 65 1008.5
20260504011904 17 298 3.2 12.9 0.00 0.00 0.00 65 1008.6
20260504011818 17 297 3.2 12.9 0.00 0.00 0.00 65 1008.6
20260504011805 17 297 3.2 12.9 0.00 0.00 0.00 65 1008.5
20260504011703 17 298 3.2 12.9 0.00 0.00 0.00 65 1008.6
20260504011517 17 298 3.2 9.7 0.00 0.00 0.00 65 1008.5
20260504011503 17 299 3.2 9.7 0.00 0.00 0.00 65 1008.5
20260504011418 17 300 3.2 9.7 0.00 0.00 0.00 65 1008.6
20260504011403 17 300 3.2 9.7 0.00 0.00 0.00 65 1008.6
20260504011317 17 302 3.2 9.7 0.00 0.00 0.00 65 1008.7
20260504011003 17 302 4.8 12.9 0.00 0.00 0.00 64 1008.6
20260504010904 17 301 3.2 12.9 0.00 0.00 0.00 64 1008.6
20260504010805 17 302 3.2 12.9 0.00 0.00 0.00 64 1008.7
20260504010703 17 304 3.2 12.9 0.00 0.00 0.00 64 1008.7
20260504010604 17 304 3.2 12.9 0.00 0.00 0.00 64 1008.6
20260504010503 17 302 3.2 12.9 0.00 0.00 0.00 64 1008.6
20260504010404 17 302 3.2 12.9 0.00 0.00 0.00 63 1008.6
20260504010304 17 301 3.2 9.7 0.00 0.00 0.00 64 1008.6
20260504010204 17 302 3.2 9.7 0.00 0.00 0.00 64 1008.7
20260504010104 17 303 3.2 11.3 0.00 0.00 0.00 64 1008.7
20260504010006 17 303 3.2 11.3 0.00 0.00 0.00 63 1008.7
20260504005904 18 304 3.2 11.3 0.00 0.00 0.00 63 1008.7
20260504005803 18 304 3.2 11.3 0.00 0.00 0.00 63 1008.8
20260504005503 18 299 3.2 11.3 0.00 0.00 0.00 62 1008.8
20260504005405 18 300 3.2 11.3 0.00 0.00 0.00 62 1008.9
20260504005304 18 302 3.2 11.3 0.00 0.00 0.00 62 1008.9
20260504005204 18 304 3.2 11.3 0.00 0.00 0.00 63 1008.9
20260504005104 18 305 3.2 11.3 0.00 0.00 0.00 63 1008.9
20260504005004 18 303 3.2 11.3 0.00 0.00 0.00 63 1008.9
20260504004903 18 306 3.2 11.3 0.00 0.00 0.00 63 1008.9
20260504004804 18 304 4.8 11.3 0.00 0.00 0.00 63 1008.9
20260504004703 18 303 4.8 11.3 0.00 0.00 0.00 63 1008.9
20260504004603 18 303 4.8 11.3 0.00 0.00 0.00 63 1008.9
20260504004503 18 304 3.2 11.3 0.00 0.00 0.00 63 1009.0
20260504004404 18 303 4.8 11.3 0.00 0.00 0.00 63 1008.9
20260504004303 18 302 3.2 11.3 0.00 0.00 0.00 62 1008.9
20260504004217 18 300 3.2 11.3 0.00 0.00 0.00 61 1008.9
20260504004203 18 298 3.2 11.3 0.00 0.00 0.00 61 1008.9
20260504004103 18 297 4.8 9.7 0.00 0.00 0.00 61 1009.0
20260504003903 18 299 3.2 12.9 0.00 0.00 0.00 61 1009.0
20260504003803 18 300 4.8 12.9 0.00 0.00 0.00 61 1009.0
20260504003703 18 302 4.8 14.5 0.00 0.00 0.00 61 1008.9
20260504003604 18 303 4.8 14.5 0.00 0.00 0.00 61 1008.9
20260504003503 18 303 4.8 14.5 0.00 0.00 0.00 61 1008.9
20260504003403 18 302 4.8 14.5 0.00 0.00 0.00 61 1009.1
20260504003203 18 306 4.8 14.5 0.00 0.00 0.00 61 1009.1
20260504003103 18 305 4.8 14.5 0.00 0.00 0.00 60 1009.1
20260504003004 18 304 4.8 14.5 0.00 0.00 0.00 60 1009.1
20260504002903 18 304 4.8 14.5 0.00 0.00 0.00 59 1009.1
20260504002804 18 304 4.8 14.5 0.00 0.00 0.00 59 1009.0
20260504002703 18 302 4.8 12.9 0.00 0.00 0.00 59 1009.1
20260504002603 18 301 4.8 12.9 0.00 0.00 0.00 60 1009.1
20260504002503 18 301 4.8 12.9 0.00 0.00 0.00 59 1009.1
20260504002403 18 300 4.8 12.9 0.00 0.00 0.00 60 1009.1
20260504002304 18 300 4.8 12.9 0.00 0.00 0.00 61 1009.1
20260504002203 18 299 4.8 12.9 0.00 0.00 0.00 60 1009.1
20260504002003 18 299 4.8 12.9 0.00 0.00 0.00 60 1009.1
20260504001904 18 297 3.2 11.3 0.00 0.00 0.00 59 1009.2
20260504001803 18 297 3.2 11.3 0.00 0.00 0.00 60 1009.2
20260504001703 18 300 3.2 11.3 0.00 0.00 0.00 59 1009.1
20260504001603 18 299 3.2 11.3 0.00 0.00 0.00 59 1009.2
20260504001503 18 299 4.8 11.3 0.00 0.00 0.00 60 1009.1
20260504001403 18 301 3.2 12.9 0.00 0.00 0.00 59 1009.1
20260504001316 18 298 3.2 12.9 0.00 0.00 0.00 59 1009.1
20260504001303 19 299 3.2 12.9 0.00 0.00 0.00 59 1009.1
20260504001204 19 297 3.2 12.9 0.00 0.00 0.00 59 1009.1
20260504001003 19 298 4.8 12.9 0.00 0.00 0.00 58 1009.2
20260504000904 19 300 4.8 12.9 0.00 0.00 0.00 58 1009.1
20260504000803 19 299 4.8 12.9 0.00 0.00 0.00 57 1009.1
20260504000718 19 299 4.8 12.9 0.00 0.00 0.00 57 1009.2
20260504000704 19 299 4.8 12.9 0.00 0.00 0.00 58 1009.1
20260504000603 19 300 4.8 12.9 0.00 0.00 0.00 57 1009.2
20260504000517 19 301 4.8 12.9 0.00 0.00 0.00 58 1009.2
20260504000316 19 302 4.8 12.9 0.00 0.00 0.00 58 1009.2
20260504000204 19 303 4.8 12.9 0.00 0.00 0.00 58 1009.2
20260504000004 19 303 3.2 12.9 0.00 0.00 0.00 58 1009.3
20260503235903 19 301 3.2 12.9 0.00 0.00 0.00 59 1009.2
20260503235803 19 303 3.2 14.5 0.00 0.00 0.00 58 1009.2
20260503235703 19 305 3.2 14.5 0.00 0.00 0.00 58 1009.2
20260503235604 19 310 4.8 16.1 0.00 0.00 0.00 58 1009.2
20260503235503 19 312 4.8 16.1 0.00 0.00 0.00 58 1009.3
20260503235403 19 312 4.8 16.1 0.00 0.00 0.00 59 1009.3
20260503235304 19 308 4.8 16.1 0.00 0.00 0.00 58 1009.3
20260503235203 19 308 4.8 16.1 0.00 0.00 0.00 58 1009.3
20260503235103 19 310 4.8 16.1 0.00 0.00 0.00 59 1009.3
20260503235003 19 309 4.8 16.1 0.00 0.00 0.00 59 1009.3
20260503234903 19 311 4.8 16.1 0.00 0.00 0.00 58 1009.3
20260503234803 19 310 4.8 16.1 0.00 0.00 0.00 58 1009.3
20260503234703 19 309 4.8 16.1 0.00 0.00 0.00 58 1009.3
20260503234603 19 304 4.8 14.5 0.00 0.00 0.00 58 1009.3
20260503234503 20 305 4.8 14.5 0.00 0.00 0.00 59 1009.3
20260503234403 20 307 4.8 14.5 0.00 0.00 0.00 58 1009.3
20260503234303 20 309 4.8 14.5 0.00 0.00 0.00 58 1009.3
20260503234203 20 312 4.8 14.5 0.00 0.00 0.00 58 1009.3
20260503234118 20 310 4.8 14.5 0.00 0.00 0.00 57 1009.4
20260503234103 20 310 4.8 14.5 0.00 0.00 0.00 57 1009.4
20260503234005 20 311 4.8 14.5 0.00 0.00 0.00 58 1009.3
20260503233804 20 307 4.8 12.9 0.00 0.00 0.00 58 1009.4
20260503233703 20 308 4.8 12.9 0.00 0.00 0.00 58 1009.3
20260503233616 20 306 4.8 16.1 0.00 0.00 0.00 58 1009.5
20260503233603 20 307 4.8 16.1 0.00 0.00 0.00 58 1009.4
20260503233503 20 304 4.8 16.1 0.00 0.00 0.00 59 1009.5
20260503233304 20 309 4.8 16.1 0.00 0.00 0.00 59 1009.4
20260503233203 19 308 4.8 16.1 0.00 0.00 0.00 59 1009.5
20260503233103 19 308 4.8 16.1 0.00 0.00 0.00 59 1009.5
20260503233003 19 307 4.8 16.1 0.00 0.00 0.00 59 1009.5
20260503232903 19 308 4.8 16.1 0.00 0.00 0.00 60 1009.5
20260503232803 19 308 4.8 16.1 0.00 0.00 0.00 59 1009.6
20260503232703 19 308 4.8 16.1 0.00 0.00 0.00 59 1009.6
20260503232517 19 311 6.4 16.1 0.00 0.00 0.00 59 1009.6
20260503232503 19 310 4.8 16.1 0.00 0.00 0.00 59 1009.6
20260503232405 19 306 6.4 16.1 0.00 0.00 0.00 59 1009.6
20260503232203 19 304 6.4 16.1 0.00 0.00 0.00 60 1009.6
20260503232103 19 305 6.4 16.1 0.00 0.00 0.00 60 1009.6
20260503232003 19 304 6.4 16.1 0.00 0.00 0.00 59 1009.6
20260503231903 19 304 4.8 16.1 0.00 0.00 0.00 60 1009.6
20260503231803 19 305 6.4 16.1 0.00 0.00 0.00 60 1009.6
20260503231703 19 304 4.8 16.1 0.00 0.00 0.00 59 1009.7
20260503231603 19 302 4.8 16.1 0.00 0.00 0.00 60 1009.7
20260503231503 19 302 4.8 16.1 0.00 0.00 0.00 60 1009.7
20260503231417 19 303 4.8 16.1 0.00 0.00 0.00 60 1009.6
20260503231403 19 301 4.8 16.1 0.00 0.00 0.00 60 1009.6
20260503231318 19 302 4.8 16.1 0.00 0.00 0.00 61 1009.6
20260503231303 19 303 4.8 14.5 0.00 0.00 0.00 61 1009.6
20260503231219 19 301 4.8 16.1 0.00 0.00 0.00 61 1009.7
20260503230903 18 306 6.4 16.1 0.00 0.00 0.00 60 1009.6
20260503230803 18 306 6.4 16.1 0.00 0.00 0.00 60 1009.8
20260503230703 19 306 6.4 16.1 0.00 0.00 0.00 60 1009.7
20260503230603 18 306 6.4 16.1 0.00 0.00 0.00 60 1009.7
20260503230503 18 305 6.4 16.1 0.00 0.00 0.00 60 1009.7
20260503230403 18 305 6.4 16.1 0.00 0.00 0.00 60 1009.8
20260503230303 18 305 6.4 17.7 0.00 0.00 0.00 60 1009.7
20260503230203 18 307 6.4 17.7 0.00 0.00 0.00 60 1009.8
20260503230103 18 305 6.4 17.7 0.00 0.00 0.00 59 1009.8
20260503230018 18 302 6.4 17.7 0.00 0.00 0.00 59 1009.9
20260503230005 18 302 4.8 17.7 0.00 0.00 0.00 59 1009.9
20260503225903 18 301 4.8 17.7 0.00 0.00 0.00 59 1009.8
20260503225704 18 300 4.8 17.7 0.00 0.00 0.00 59 1009.8
20260503225603 18 300 4.8 17.7 0.00 0.00 0.00 59 1009.9
20260503225503 18 302 4.8 17.7 0.00 0.00 0.00 58 1009.9
20260503225403 18 302 4.8 17.7 0.00 0.00 0.00 58 1009.9
20260503225304 18 303 4.8 14.5 0.00 0.00 0.00 58 1009.9
20260503225217 18 301 4.8 14.5 0.00 0.00 0.00 57 1009.9
20260503225203 18 300 4.8 12.9 0.00 0.00 0.00 58 1009.9
20260503225103 18 302 4.8 12.9 0.00 0.00 0.00 58 1009.9
20260503224903 18 303 4.8 14.5 0.00 0.00 0.00 58 1010.0
20260503224803 18 301 4.8 14.5 0.00 0.00 0.00 58 1009.9
20260503224703 18 302 4.8 14.5 0.00 0.00 0.00 59 1009.9
20260503224603 18 304 4.8 14.5 0.00 0.00 0.00 59 1009.9
20260503224503 18 305 4.8 14.5 0.00 0.00 0.00 58 1009.9
20260503224403 18 306 4.8 14.5 0.00 0.00 0.00 58 1009.9
20260503224303 18 305 4.8 14.5 0.00 0.00 0.00 59 1010.0
20260503224203 18 305 4.8 14.5 0.00 0.00 0.00 60 1010.0
20260503224103 18 303 4.8 14.5 0.00 0.00 0.00 59 1010.0
20260503224004 18 302 4.8 12.9 0.00 0.00 0.00 59 1010.0
20260503223918 18 303 4.8 12.9 0.00 0.00 0.00 59 1009.9
20260503223903 18 304 4.8 12.9 0.00 0.00 0.00 59 1010.0
20260503223803 18 304 4.8 12.9 0.00 0.00 0.00 60 1010.0
20260503223603 18 302 4.8 14.5 0.00 0.00 0.00 59 1010.1
20260503223503 18 299 4.8 14.5 0.00 0.00 0.00 59 1010.1
20260503223403 18 298 4.8 14.5 0.00 0.00 0.00 59 1010.2
20260503223303 18 300 4.8 14.5 0.00 0.00 0.00 59 1010.1
20260503223203 18 301 4.8 14.5 0.00 0.00 0.00 58 1010.0
20260503223103 18 301 4.8 14.5 0.00 0.00 0.00 59 1010.1
20260503223003 18 304 4.8 14.5 0.00 0.00 0.00 60 1010.1
20260503222903 18 305 4.8 14.5 0.00 0.00 0.00 60 1010.2
20260503222803 18 307 4.8 14.5 0.00 0.00 0.00 60 1010.2
20260503222603 18 308 4.8 12.9 0.00 0.00 0.00 61 1010.3
20260503222517 18 309 4.8 12.9 0.00 0.00 0.00 61 1010.2
20260503222503 18 309 4.8 12.9 0.00 0.00 0.00 61 1010.2
20260503222403 18 312 4.8 12.9 0.00 0.00 0.00 61 1010.2
20260503222218 18 310 4.8 17.7 0.00 0.00 0.00 61 1010.3
20260503222203 18 309 6.4 17.7 0.00 0.00 0.00 61 1010.3
20260503222103 18 309 6.4 17.7 0.00 0.00 0.00 60 1010.2
20260503221903 18 308 4.8 17.7 0.00 0.00 0.00 60 1010.3
20260503221816 18 307 4.8 17.7 0.00 0.00 0.00 59 1010.3
20260503221803 18 308 6.4 17.7 0.00 0.00 0.00 59 1010.3
20260503221703 18 310 6.4 19.3 0.00 0.00 0.00 59 1010.3
20260503221503 18 307 4.8 19.3 0.00 0.00 0.00 59 1010.3
20260503221403 18 305 4.8 19.3 0.00 0.00 0.00 59 1010.3
20260503221303 19 304 4.8 19.3 0.00 0.00 0.00 58 1010.3
20260503221203 19 304 4.8 19.3 0.00 0.00 0.00 58 1010.4
20260503221104 19 303 4.8 19.3 0.00 0.00 0.00 59 1010.3
20260503221003 19 303 4.8 19.3 0.00 0.00 0.00 59 1010.4
20260503220904 19 301 4.8 19.3 0.00 0.00 0.00 58 1010.4
20260503220816 19 300 4.8 19.3 0.00 0.00 0.00 59 1010.3
20260503220703 19 297 4.8 17.7 0.00 0.00 0.00 59 1010.4
20260503220503 19 301 4.8 17.7 0.00 0.00 0.00 58 1010.3
20260503220403 19 302 4.8 17.7 0.00 0.00 0.00 58 1010.3
20260503220303 19 304 4.8 11.3 0.00 0.00 0.00 60 1010.4
20260503220203 19 307 4.8 12.9 0.00 0.00 0.00 59 1010.4
20260503220104 19 306 4.8 14.5 0.00 0.00 0.00 58 1010.5
20260503220003 19 306 4.8 14.5 0.00 0.00 0.00 58 1010.4
20260503215903 19 307 4.8 14.5 0.00 0.00 0.00 58 1010.4
20260503215803 19 305 4.8 14.5 0.00 0.00 0.00 58 1010.4
20260503215717 19 305 4.8 14.5 0.00 0.00 0.00 58 1010.4
20260503215603 19 302 4.8 14.5 0.00 0.00 0.00 58 1010.4
20260503215518 19 303 4.8 14.5 0.00 0.00 0.00 58 1010.5
20260503215203 19 297 4.8 14.5 0.00 0.00 0.00 57 1010.4